Location: ?????????
(42.1392°N, 44.1931°E)
Time: 09:01:47
(UTC+00:00)

STARLINK-1353 - Pass Details

Date: 07 June 2020
Orbit: 531 x 535 km, 53.0° (Epoch: 06 July)

Event Time Altitude Azimuth Distance (km) Brightness Sun altitude
Rises 00:38:52 0° 308° (NW) 2,683 7.0 -8.1°
Reaches altitude 10° 00:41:08 10° 313° (NW) 1,791 6.2 -7.7°
Maximum altitude 00:45:08 55° 32° (NNE) 643 4.4 -7.2°
Drops below altitude 10° 00:49:07 10° 111° (ESE) 1,784 6.7 -6.6°
Sets 00:51:22 0° 116° (ESE) 2,672 7.5 -6.3°
